| time (UTC) | temp F | wind direction | speed MPH | gust MPH | rain 1hr in | rain 24hr in | rain mn in | humidity % | barometer mb |
| 20260506190048 | 64 | 0 | 6.0 | 15.0 | 0.00 | 0.00 | 0.00 | 80 | 1012.3 |
| 20260506184549 | 66 | 54 | 3.0 | 14.0 | 0.00 | 0.00 | 0.00 | 79 | 1012.1 |
| 20260506183045 | 70 | 59 | 5.0 | 11.0 | 0.00 | 0.00 | 0.00 | 74 | 1012.0 |
| 20260506181556 | 72 | 0 | 1.0 | 13.0 | 0.00 | 0.00 | 0.00 | 74 | 1011.9 |
| 20260506180111 | 71 | 110 | 0.0 | 10.0 | 0.00 | 0.00 | 0.00 | 77 | 1011.7 |
| 20260506174546 | 69 | 0 | 0.0 | 6.0 | 0.00 | 0.00 | 0.00 | 78 | 1011.5 |
| 20260506173106 | 69 | 0 | 0.0 | 7.0 | 0.00 | 0.00 | 0.00 | 80 | 1011.2 |
| 20260506171547 | 66 | 139 | 0.0 | 9.0 | 0.00 | 0.00 | 0.00 | 82 | 1011.4 |
| 20260506170044 | 66 | 0 | 3.0 | 10.0 | 0.00 | 0.00 | 0.00 | 83 | 1011.2 |
| 20260506164542 | 65 | 136 | 2.0 | 9.0 | 0.00 | 0.00 | 0.00 | 87 | 1011.4 |
| 20260506163044 | 62 | 0 | 0.0 | 9.0 | 0.00 | 0.00 | 0.00 | 91 | 1011.9 |
| 20260506161554 | 60 | 90 | 0.0 | 11.0 | 0.00 | 0.00 | 0.00 | 92 | 1012.4 |
| 20260506160049 | 60 | 86 | 3.0 | 15.0 | 0.00 | 0.00 | 0.00 | 91 | 1012.8 |
| 20260506154549 | 60 | 99 | 4.0 | 16.0 | 0.00 | 0.00 | 0.00 | 91 | 1012.7 |
| 20260506153041 | 61 | 51 | 5.0 | 19.0 | 0.00 | 0.00 | 0.00 | 91 | 1012.7 |
| 20260506151548 | 62 | 96 | 7.0 | 17.0 | 0.00 | 0.00 | 0.00 | 90 | 1012.5 |
| 20260506150056 | 63 | 103 | 2.0 | 12.0 | 0.00 | 0.00 | 0.00 | 90 | 1011.7 |
| 20260506144601 | 64 | 126 | 5.0 | 13.0 | 0.00 | 0.00 | 0.00 | 89 | 1011.3 |
| 20260506143047 | 66 | 105 | 6.0 | 14.0 | 0.00 | 0.00 | 0.00 | 89 | 1010.9 |
| 20260506141545 | 68 | 78 | 2.0 | 9.0 | 0.00 | 0.00 | 0.00 | 89 | 1010.1 |
| 20260506140044 | 72 | 120 | 4.0 | 11.0 | 0.00 | 0.00 | 0.00 | 87 | 1010.0 |
| 20260506134549 | 74 | 0 | 0.0 | 0.0 | 0.00 | 0.00 | 0.00 | 92 | 1009.8 |
| 20260506133051 | 74 | 0 | 0.0 | 0.0 | 0.00 | 0.00 | 0.00 | 92 | 1009.6 |
| 20260506131549 | 74 | 0 | 0.0 | 0.0 | 0.00 | 0.00 | 0.00 | 92 | 1009.5 |
| 20260506130049 | 74 | 0 | 0.0 | 0.0 | 0.00 | 0.00 | 0.00 | 93 | 1009.1 |
| 20260506124544 | 73 | 0 | 0.0 | 0.0 | 0.00 | 0.00 | 0.00 | 93 | 1009.0 |
| 20260506123043 | 72 | 0 | 0.0 | 0.0 | 0.00 | 0.00 | 0.00 | 93 | 1008.9 |
| 20260506121548 | 72 | 0 | 0.0 | 0.0 | 0.00 | 0.00 | 0.00 | 92 | 1008.7 |
| 20260506120050 | 73 | 0 | 0.0 | 0.0 | 0.00 | 0.00 | 0.00 | 91 | 1008.7 |
| 20260506114547 | 73 | 0 | 0.0 | 6.0 | 0.00 | 0.00 | 0.00 | 91 | 1008.6 |
| 20260506113042 | 74 | 172 | 3.0 | 5.0 | 0.00 | 0.00 | 0.00 | 90 | 1008.7 |
| 20260506111543 | 74 | 0 | 1.0 | 5.0 | 0.00 | 0.00 | 0.00 | 90 | 1008.8 |
| 20260506110048 | 74 | 0 | 2.0 | 6.0 | 0.00 | 0.00 | 0.00 | 90 | 1008.7 |
| 20260506104546 | 74 | 0 | 2.0 | 5.0 | 0.00 | 0.00 | 0.00 | 90 | 1008.8 |
| 20260506103117 | 74 | 0 | 0.0 | 4.0 | 0.00 | 0.00 | 0.00 | 90 | 1008.7 |
| 20260506101545 | 74 | 0 | 0.0 | 7.0 | 0.00 | 0.00 | 0.00 | 89 | 1008.5 |
| 20260506100044 | 74 | 193 | 4.0 | 11.0 | 0.00 | 0.00 | 0.00 | 89 | 1008.2 |
| 20260506094542 | 74 | 195 | 4.0 | 8.0 | 0.00 | 0.00 | 0.00 | 89 | 1008.3 |
| 20260506093043 | 74 | 195 | 4.0 | 10.0 | 0.00 | 0.00 | 0.00 | 89 | 1007.9 |
| 20260506091543 | 74 | 0 | 4.0 | 8.0 | 0.00 | 0.00 | 0.00 | 89 | 1007.8 |
| 20260506090047 | 74 | 237 | 4.0 | 9.0 | 0.00 | 0.00 | 0.00 | 88 | 1007.7 |
| 20260506084550 | 74 | 210 | 5.0 | 12.0 | 0.00 | 0.00 | 0.00 | 88 | 1007.5 |
| 20260506083055 | 74 | 0 | 4.0 | 10.0 | 0.00 | 0.00 | 0.00 | 88 | 1007.7 |
| 20260506081540 | 74 | 208 | 5.0 | 10.0 | 0.00 | 0.00 | 0.00 | 88 | 1007.6 |
| 20260506073103 | 74 | 198 | 7.0 | 14.0 | 0.00 | 0.00 | 0.00 | 89 | 1007.8 |
| 20260506071548 | 74 | 221 | 7.0 | 17.0 | 0.00 | 0.00 | 0.00 | 89 | 1008.0 |
| 20260506061548 | 75 | 226 | 8.0 | 18.0 | 0.00 | 0.00 | 0.00 | 88 | 1007.8 |
| 20260506044551 | 75 | 198 | 6.0 | 10.0 | 0.00 | 0.00 | 0.00 | 88 | 1007.8 |
| 20260506043050 | 75 | 241 | 5.0 | 11.0 | 0.00 | 0.00 | 0.00 | 88 | 1007.8 |
| 20260506041554 | 75 | 174 | 2.0 | 7.0 | 0.00 | 0.00 | 0.00 | 88 | 1007.7 |
| 20260506040052 | 76 | 234 | 6.0 | 10.0 | 0.00 | 0.00 | 0.00 | 87 | 1007.5 |
| 20260506034549 | 76 | 166 | 4.0 | 9.0 | 0.00 | 0.00 | 0.00 | 86 | 1007.5 |
| 20260506033101 | 76 | 164 | 7.0 | 12.0 | 0.00 | 0.00 | 0.00 | 85 | 1007.0 |
| 20260506031547 | 77 | 186 | 5.0 | 12.0 | 0.00 | 0.00 | 0.00 | 84 | 1007.1 |
| 20260506030057 | 77 | 175 | 4.0 | 6.0 | 0.00 | 0.00 | 0.00 | 83 | 1006.7 |
| 20260506024547 | 77 | 174 | 4.0 | 9.0 | 0.00 | 0.00 | 0.00 | 83 | 1006.7 |
| 20260506023044 | 77 | 188 | 2.0 | 7.0 | 0.00 | 0.00 | 0.00 | 82 | 1006.5 |
| 20260506021557 | 78 | 179 | 3.0 | 6.0 | 0.00 | 0.00 | 0.00 | 81 | 1006.2 |
| 20260506020048 | 78 | 0 | 0.0 | 7.0 | 0.00 | 0.00 | 0.00 | 80 | 1006.0 |
| 20260506014547 | 79 | 206 | 2.0 | 7.0 | 0.00 | 0.00 | 0.00 | 79 | 1005.7 |
| 20260506013048 | 79 | 196 | 4.0 | 9.0 | 0.00 | 0.00 | 0.00 | 78 | 1005.6 |
| 20260506011607 | 79 | 220 | 4.0 | 10.0 | 0.00 | 0.00 | 0.00 | 76 | 1005.6 |
| 20260506010046 | 80 | 202 | 5.0 | 9.0 | 0.00 | 0.00 | 0.00 | 75 | 1005.5 |
| 20260506004546 | 81 | 236 | 4.0 | 11.0 | 0.00 | 0.00 | 0.00 | 74 | 1005.5 |
| 20260506003042 | 81 | 224 | 4.0 | 13.0 | 0.00 | 0.00 | 0.00 | 72 | 1005.6 |
| 20260506001547 | 81 | 216 | 4.0 | 14.0 | 0.00 | 0.00 | 0.00 | 72 | 1005.5 |
| 20260506000054 | 81 | 224 | 8.0 | 13.0 | 0.00 | 0.00 | 0.00 | 71 | 1005.6 |
| 20260505234544 | 82 | 220 | 6.0 | 12.0 | 0.00 | 0.00 | 0.00 | 71 | 1005.5 |
| 20260505233042 | 82 | 233 | 6.0 | 14.0 | 0.00 | 0.00 | 0.00 | 70 | 1005.3 |
| 20260505231543 | 82 | 186 | 7.0 | 14.0 | 0.00 | 0.00 | 0.00 | 69 | 1005.3 |
| 20260505230041 | 82 | 214 | 8.0 | 15.0 | 0.00 | 0.00 | 0.00 | 69 | 1005.2 |
| 20260505224543 | 83 | 238 | 7.0 | 13.0 | 0.00 | 0.00 | 0.00 | 68 | 1005.1 |
| 20260505223045 | 83 | 213 | 8.0 | 14.0 | 0.00 | 0.00 | 0.00 | 67 | 1005.1 |
| 20260505221554 | 83 | 180 | 7.0 | 15.0 | 0.00 | 0.00 | 0.00 | 69 | 1004.8 |
| 20260505220055 | 83 | 203 | 7.0 | 13.0 | 0.00 | 0.00 | 0.00 | 69 | 1005.0 |
| 20260505214552 | 84 | 224 | 5.0 | 14.0 | 0.00 | 0.00 | 0.00 | 69 | 1005.2 |
| 20260505213048 | 83 | 202 | 8.0 | 16.0 | 0.00 | 0.00 | 0.00 | 68 | 1005.3 |
| 20260505211545 | 83 | 151 | 7.0 | 16.0 | 0.00 | 0.00 | 0.00 | 68 | 1005.4 |
| 20260505210053 | 83 | 219 | 3.0 | 12.0 | 0.00 | 0.00 | 0.00 | 68 | 1005.7 |
| 20260505204555 | 83 | 248 | 6.0 | 14.0 | 0.00 | 0.00 | 0.00 | 68 | 1005.8 |
| 20260505203049 | 83 | 217 | 4.0 | 16.0 | 0.00 | 0.00 | 0.00 | 69 | 1005.9 |
| 20260505201550 | 83 | 193 | 6.0 | 14.0 | 0.00 | 0.00 | 0.00 | 68 | 1006.2 |
| 20260505200046 | 82 | 176 | 6.0 | 15.0 | 0.00 | 0.00 | 0.00 | 69 | 1006.4 |
| 20260505194556 | 81 | 244 | 11.0 | 17.0 | 0.00 | 0.00 | 0.00 | 69 | 1006.5 |
| 20260505193044 | 81 | 231 | 6.0 | 16.0 | 0.00 | 0.00 | 0.00 | 70 | 1006.8 |
| 20260505191548 | 80 | 207 | 5.0 | 17.0 | 0.00 | 0.00 | 0.00 | 70 | 1006.9 |